"Period start","avg(HW err(1)/warn(2) (#))","avg(Visibility (m))","avg(Weather code (#))","avg(Precip intensity (mm/h))","min(HW err(1)/warn(2) (#))","max(HW err(1)/warn(2) (#))","std(HW err(1)/warn(2) (#))","med(HW err(1)/warn(2) (#))","min(Visibility (m))","max(Visibility (m))","std(Visibility (m))","med(Visibility (m))","min(Weather code (#))","max(Weather code (#))","std(Weather code (#))","med(Weather code (#))","min(Precip intensity (mm/h))","max(Precip intensity (mm/h))","std(Precip intensity (mm/h))","med(Precip intensity (mm/h))"
2014-10-08 00:00:00,2,17765,0,0.00,2,2,0,2,15650,20004,1329,17840,0,0,0,0,0.00,0.00,0.00,0.00
2014-10-08 00:10:00,2,17706,67,0.01,2,2,0,2,15656,19954,1517,17813,40,77,14,71,0.00,0.05,0.02,0.00
2014-10-08 00:20:00,2,14633,72,0.04,2,2,0,2,11557,17713,1726,14776,71,77,2,71,0.00,0.35,0.10,0.00
2014-10-08 00:30:00,2,15520,71,0.02,2,2,0,2,12905,17440,1465,15846,71,71,0,71,0.00,0.10,0.03,0.00
2014-10-08 00:40:00,2,17191,73,0.01,2,2,0,2,14152,21802,2203,17008,71,77,3,71,0.00,0.10,0.03,0.00
2014-10-08 00:50:00,2,16239,71,0.02,2,2,0,2,15304,16767,461,16372,71,71,0,71,0.00,0.10,0.03,0.00
2014-10-08 01:00:00,2,18396,43,0.00,2,2,0,2,14412,21097,1823,18252,0,71,35,71,0.00,0.00,0.00,0.00
2014-10-08 01:10:00,2,13716,64,0.07,2,2,0,2,9282,16940,2737,14362,0,71,21,71,0.00,0.40,0.12,0.00
2014-10-08 01:20:00,2,16114,71,0.03,2,2,0,2,6781,19884,3796,16897,71,71,0,71,0.00,0.10,0.04,0.00
2014-10-08 01:30:00,2,21813,43,0.00,2,2,0,2,18749,24955,2106,22058,0,71,35,71,0.00,0.00,0.00,0.00
2014-10-08 01:40:00,2,19789,0,0.00,2,2,0,2,16171,26372,2779,19798,0,0,0,0,0.00,0.00,0.00,0.00
2014-10-08 01:50:00,2,20099,64,0.00,2,2,0,2,15264,23170,2117,20131,0,71,21,71,0.00,0.00,0.00,0.00
2014-10-08 02:00:00,2,22949,37,0.00,2,2,0,2,17500,31226,3720,22458,0,77,37,36,0.00,0.00,0.00,0.00
2014-10-08 02:10:00,2,21578,0,0.00,2,2,0,2,19531,28126,2391,20810,0,0,0,0,0.00,0.00,0.00,0.00
2014-10-08 02:20:00,2,20928,0,0.00,2,2,0,2,13112,27597,3813,20583,0,0,0,0,0.00,0.00,0.00,0.00
2014-10-08 02:30:00,2,23580,0,0.00,2,2,0,2,20759,27663,2524,22620,0,0,0,0,0.00,0.00,0.00,0.00
2014-10-08 02:40:00,2,24388,0,0.00,2,2,0,2,20430,29222,2679,23752,0,0,0,0,0.00,0.00,0.00,0.00
2014-10-08 02:50:00,2,26886,0,0.00,2,2,0,2,21842,34422,3737,25978,0,0,0,0,0.00,0.00,0.00,0.00
2014-10-08 03:00:00,2,26200,0,0.00,2,2,0,2,20773,34001,4644,26110,0,0,0,0,0.00,0.00,0.00,0.00
2014-10-08 03:10:00,2,23334,0,0.00,2,2,0,2,19807,26206,1708,23457,0,0,0,0,0.00,0.00,0.00,0.00
2014-10-08 03:20:00,2,18621,36,0.02,2,2,0,2,14491,26741,3535,17892,0,71,32,40,0.00,0.05,0.02,0.00
2014-10-08 03:30:00,2,23031,44,0.00,2,2,0,2,19558,29472,3015,21908,0,77,36,71,0.00,0.00,0.00,0.00
2014-10-08 03:40:00,2,18568,50,0.02,2,2,0,2,13988,24885,3545,17396,0,71,33,71,0.00,0.05,0.02,0.00
2014-10-08 03:50:00,2,5833,71,1.11,2,2,0,2,3774,9113,1692,4992,71,71,0,71,0.55,1.85,0.49,1.00
2014-10-08 04:00:00,2,7335,71,0.79,2,2,0,2,3471,10971,2377,6852,71,71,0,71,0.10,1.80,0.50,0.68
2014-10-08 04:10:00,2,8524,71,0.56,2,2,0,2,4414,12138,2901,8825,71,71,0,71,0.10,1.20,0.38,0.53
2014-10-08 04:20:00,2,9212,71,0.52,2,2,0,2,7057,10652,1093,9320,71,71,0,71,0.05,0.85,0.23,0.53
2014-10-08 04:30:00,2,9180,71,0.67,2,2,0,2,6091,13498,1968,8942,71,71,0,71,0.20,1.15,0.29,0.70
2014-10-08 04:40:00,2,5422,71,1.26,2,2,0,2,3480,8617,1664,5034,71,71,0,71,0.65,1.95,0.48,1.33
2014-10-08 04:50:00,2,6593,71,0.83,2,2,0,2,4666,9053,1423,6210,71,71,0,71,0.30,1.25,0.24,0.90
2014-10-08 05:00:00,2,8742,71,0.64,2,2,0,2,5997,13737,2573,7748,71,71,0,71,0.20,1.40,0.37,0.65
2014-10-08 05:10:00,2,5401,71,1.25,2,2,0,2,4206,6496,871,5177,71,71,0,71,0.60,2.40,0.59,1.10
2014-10-08 05:20:00,2,11073,71,0.41,2,2,0,2,5052,16333,3626,10338,71,71,0,71,0.00,1.15,0.38,0.30
2014-10-08 05:30:00,2,21162,28,0.00,2,2,0,2,18271,26169,2431,20788,0,71,35,0,0.00,0.00,0.00,0.00
2014-10-08 05:40:00,2,17848,65,0.03,2,2,0,2,13230,23729,3047,18619,0,77,22,71,0.00,0.10,0.04,0.00
2014-10-08 05:50:00,2,24099,15,0.00,2,2,0,2,14923,29443,3906,25168,0,77,30,0,0.00,0.00,0.00,0.00
2014-10-08 06:00:00,2,12931,71,0.12,2,2,0,2,9939,15566,2005,12467,71,71,0,71,0.05,0.35,0.09,0.10
2014-10-08 06:10:00,2,8573,71,0.23,2,2,0,2,4272,12799,2320,8350,71,71,0,71,0.00,0.95,0.26,0.12
2014-10-08 06:20:00,2,4093,71,1.28,2,2,0,2,2696,6076,958,4012,71,71,0,71,0.30,1.95,0.48,1.15
2014-10-08 06:30:00,2,4672,71,1.87,2,2,0,2,2746,8924,1829,3996,71,71,0,71,0.50,3.30,0.76,1.95
2014-10-08 06:40:00,2,5863,71,1.22,2,2,0,2,3925,8807,1446,5849,71,71,0,71,0.30,2.10,0.68,1.08
2014-10-08 06:50:00,2,4326,71,1.79,2,2,0,2,2653,5930,1198,4365,71,71,0,71,0.70,2.95,0.74,2.00
2014-10-08 07:00:00,2,5618,71,2.06,2,2,0,2,2479,15893,4443,3276,71,71,0,71,0.05,3.70,1.15,2.50
2014-10-08 07:10:00,2,19613,64,0.03,2,2,0,2,13044,26262,3589,19796,0,71,21,71,0.00,0.20,0.06,0.00
2014-10-08 07:20:00,2,21540,0,0.00,2,2,0,2,19088,23232,1243,22044,0,0,0,0,0.00,0.00,0.00,0.00
2014-10-08 07:30:00,2,22408,0,0.00,2,2,0,2,18663,26411,2063,22304,0,0,0,0,0.00,0.00,0.00,0.00
2014-10-08 07:40:00,2,20594,0,0.00,2,2,0,2,18138,23050,1327,20424,0,0,0,0,0.00,0.00,0.00,0.00
2014-10-08 07:50:00,2,18405,4,0.00,2,2,0,2,15090,21219,1972,18776,0,40,12,0,0.00,0.00,0.00,0.00
2014-10-08 08:00:00,2,19133,59,0.01,2,2,0,2,15131,22776,2285,18505,0,77,24,71,0.00,0.05,0.02,0.00
2014-10-08 08:10:00,2,22146,0,0.00,2,2,0,2,19533,24951,1491,21972,0,0,0,0,0.00,0.00,0.00,0.00
2014-10-08 08:20:00,2,20354,0,0.00,2,2,0,2,18545,22337,1325,20052,0,0,0,0,0.00,0.00,0.00,0.00
2014-10-08 08:30:00,2,20391,0,0.00,2,2,0,2,19057,21779,853,20518,0,0,0,0,0.00,0.00,0.00,0.00
2014-10-08 08:40:00,2,21080,0,0.00,2,2,0,2,19821,22856,1028,20892,0,0,0,0,0.00,0.00,0.00,0.00
2014-10-08 08:50:00,2,22576,0,0.00,2,2,0,2,20139,24451,1272,22808,0,0,0,0,0.00,0.00,0.00,0.00
2014-10-08 09:00:00,2,22432,0,0.00,2,2,0,2,20130,23822,1196,23024,0,0,0,0,0.00,0.00,0.00,0.00
2014-10-08 09:10:00,2,21886,0,0.00,2,2,0,2,19109,24359,1694,21826,0,0,0,0,0.00,0.00,0.00,0.00
2014-10-08 09:20:00,2,22401,0,0.00,2,2,0,2,21054,24652,1050,22100,0,0,0,0,0.00,0.00,0.00,0.00
2014-10-08 09:30:00,2,22759,0,0.00,2,2,0,2,20143,25855,1669,22853,0,0,0,0,0.00,0.00,0.00,0.00
2014-10-08 09:40:00,2,22001,0,0.00,2,2,0,2,18458,23546,1388,22196,0,0,0,0,0.00,0.00,0.00,0.00
2014-10-08 09:50:00,2,22787,0,0.00,2,2,0,2,20729,26159,1821,22380,0,0,0,0,0.00,0.00,0.00,0.00
2014-10-08 10:00:00,2,24365,0,0.00,2,2,0,2,21646,27984,1878,24055,0,0,0,0,0.00,0.00,0.00,0.00
2014-10-08 10:10:00,2,24598,0,0.00,2,2,0,2,22382,26984,1210,24222,0,0,0,0,0.00,0.00,0.00,0.00
2014-10-08 10:20:00,2,25942,0,0.00,2,2,0,2,22597,27967,1797,26380,0,0,0,0,0.00,0.00,0.00,0.00
2014-10-08 10:30:00,2,24435,0,0.00,2,2,0,2,21779,26166,1465,24540,0,0,0,0,0.00,0.00,0.00,0.00
2014-10-08 10:40:00,2,23570,0,0.00,2,2,0,2,20643,27244,2108,23390,0,0,0,0,0.00,0.00,0.00,0.00
2014-10-08 10:50:00,2,23950,0,0.00,2,2,0,2,21502,27483,2153,23206,0,0,0,0,0.00,0.00,0.00,0.00
2014-10-08 11:00:00,2,24242,0,0.00,2,2,0,2,21814,26405,1176,24246,0,0,0,0,0.00,0.00,0.00,0.00
2014-10-08 11:10:00,2,24451,0,0.00,2,2,0,2,21873,26115,1186,24824,0,0,0,0,0.00,0.00,0.00,0.00
2014-10-08 11:20:00,2,26133,0,0.00,2,2,0,2,22804,31649,2368,25780,0,0,0,0,0.00,0.00,0.00,0.00
2014-10-08 11:30:00,2,27933,0,0.00,2,2,0,2,24580,32265,2318,27291,0,0,0,0,0.00,0.00,0.00,0.00
2014-10-08 11:40:00,2,26685,0,0.00,2,2,0,2,24604,28639,1302,26630,0,0,0,0,0.00,0.00,0.00,0.00
2014-10-08 11:50:00,2,27052,0,0.00,2,2,0,2,25120,30805,1563,26576,0,0,0,0,0.00,0.00,0.00,0.00
2014-10-08 12:00:00,2,28373,0,0.00,2,2,0,2,25457,32519,2298,27944,0,0,0,0,0.00,0.00,0.00,0.00
2014-10-08 12:10:00,2,27124,0,0.00,2,2,0,2,23573,31630,2453,26857,0,0,0,0,0.00,0.00,0.00,0.00
2014-10-08 12:20:00,2,26240,0,0.00,2,2,0,2,23218,30393,1866,25718,0,0,0,0,0.00,0.00,0.00,0.00
2014-10-08 12:30:00,2,27002,0,0.00,2,2,0,2,23176,31531,2589,27304,0,0,0,0,0.00,0.00,0.00,0.00
2014-10-08 12:40:00,2,28661,0,0.00,2,2,0,2,24050,35499,3290,28530,0,0,0,0,0.00,0.00,0.00,0.00
2014-10-08 12:50:00,2,24203,0,0.00,2,2,0,2,21925,27350,1806,24018,0,0,0,0,0.00,0.00,0.00,0.00
2014-10-08 13:00:00,2,23582,0,0.00,2,2,0,2,21587,25381,1133,23493,0,0,0,0,0.00,0.00,0.00,0.00
2014-10-08 13:10:00,2,24978,0,0.00,2,2,0,2,22131,28507,2169,24893,0,0,0,0,0.00,0.00,0.00,0.00
2014-10-08 13:20:00,2,24500,0,0.00,2,2,0,2,19726,30870,2994,24346,0,0,0,0,0.00,0.00,0.00,0.00
2014-10-08 13:30:00,2,24520,0,0.00,2,2,0,2,21501,26471,1807,25396,0,0,0,0,0.00,0.00,0.00,0.00
2014-10-08 13:40:00,2,26524,0,0.00,2,2,0,2,24236,29093,1605,26348,0,0,0,0,0.00,0.00,0.00,0.00
2014-10-08 13:50:00,2,25358,0,0.00,2,2,0,2,22657,29236,1634,25236,0,0,0,0,0.00,0.00,0.00,0.00
2014-10-08 14:00:00,2,27491,0,0.00,2,2,0,2,24670,31171,2337,26664,0,0,0,0,0.00,0.00,0.00,0.00
2014-10-08 14:10:00,2,26126,0,0.00,2,2,0,2,23376,29619,1958,26087,0,0,0,0,0.00,0.00,0.00,0.00
2014-10-08 14:20:00,2,27264,0,0.00,2,2,0,2,24427,31825,2046,27070,0,0,0,0,0.00,0.00,0.00,0.00
2014-10-08 14:30:00,2,29492,0,0.00,2,2,0,2,25209,37121,3400,28898,0,0,0,0,0.00,0.00,0.00,0.00
2014-10-08 14:40:00,2,26851,0,0.00,2,2,0,2,24816,28499,1146,26752,0,0,0,0,0.00,0.00,0.00,0.00
2014-10-08 14:50:00,2,30374,0,0.00,2,2,0,2,27826,33352,1515,30116,0,0,0,0,0.00,0.00,0.00,0.00
2014-10-08 15:00:00,2,31275,0,0.00,2,2,0,2,28017,36522,2617,31096,0,0,0,0,0.00,0.00,0.00,0.00
2014-10-08 15:10:00,2,30013,0,0.00,2,2,0,2,27513,34788,2149,29502,0,0,0,0,0.00,0.00,0.00,0.00
2014-10-08 15:20:00,2,31503,0,0.00,2,2,0,2,26730,36515,2897,31546,0,0,0,0,0.00,0.00,0.00,0.00
2014-10-08 15:30:00,2,32445,0,0.00,2,2,0,2,26655,36874,3304,32270,0,0,0,0,0.00,0.00,0.00,0.00
2014-10-08 15:40:00,2,32482,0,0.00,2,2,0,2,28955,36951,2278,32268,0,0,0,0,0.00,0.00,0.00,0.00
2014-10-08 15:50:00,2,33611,0,0.00,2,2,0,2,30130,36882,2227,34193,0,0,0,0,0.00,0.00,0.00,0.00
2014-10-08 16:00:00,2,32890,0,0.00,2,2,0,2,30472,36851,1750,32782,0,0,0,0,0.00,0.00,0.00,0.00
2014-10-08 16:10:00,2,33010,0,0.00,2,2,0,2,30722,37188,1918,32442,0,0,0,0,0.00,0.00,0.00,0.00
2014-10-08 16:20:00,2,31707,0,0.00,2,2,0,2,26917,35548,2411,31851,0,0,0,0,0.00,0.00,0.00,0.00
2014-10-08 16:30:00,2,31159,0,0.00,2,2,0,2,27236,35526,2973,31137,0,0,0,0,0.00,0.00,0.00,0.00
2014-10-08 16:40:00,2,32981,0,0.00,2,2,0,2,30278,36487,1895,33002,0,0,0,0,0.00,0.00,0.00,0.00
2014-10-08 16:50:00,2,32430,0,0.00,2,2,0,2,29445,35271,2115,32032,0,0,0,0,0.00,0.00,0.00,0.00
2014-10-08 17:00:00,2,29396,0,0.00,2,2,0,2,25316,31912,1934,29924,0,0,0,0,0.00,0.00,0.00,0.00
2014-10-08 17:10:00,2,27450,0,0.00,2,2,0,2,24903,29592,1218,27342,0,0,0,0,0.00,0.00,0.00,0.00
2014-10-08 17:20:00,2,32927,0,0.00,2,2,0,2,27929,37782,3264,32719,0,0,0,0,0.00,0.00,0.00,0.00
2014-10-08 17:30:00,2,31110,0,0.00,2,2,0,2,28215,35409,1928,31555,0,0,0,0,0.00,0.00,0.00,0.00
2014-10-08 17:40:00,2,30976,0,0.00,2,2,0,2,28212,33347,1686,31703,0,0,0,0,0.00,0.00,0.00,0.00
2014-10-08 17:50:00,2,32624,0,0.00,2,2,0,2,29965,35446,1815,32437,0,0,0,0,0.00,0.00,0.00,0.00
2014-10-08 18:00:00,2,33062,0,0.00,2,2,0,2,27928,38399,3059,32272,0,0,0,0,0.00,0.00,0.00,0.00
2014-10-08 18:10:00,2,28623,0,0.00,2,2,0,2,20990,32276,3004,28806,0,0,0,0,0.00,0.00,0.00,0.00
2014-10-08 18:20:00,2,28708,0,0.00,2,2,0,2,21811,36115,3966,28706,0,0,0,0,0.00,0.00,0.00,0.00
2014-10-08 18:30:00,2,29784,0,0.00,2,2,0,2,26171,34080,2620,28926,0,0,0,0,0.00,0.00,0.00,0.00
2014-10-08 18:40:00,2,32447,0,0.00,2,2,0,2,28362,35694,2286,32290,0,0,0,0,0.00,0.00,0.00,0.00
2014-10-08 18:50:00,2,37248,0,0.00,2,2,0,2,33087,40395,2135,37786,0,0,0,0,0.00,0.00,0.00,0.00
2014-10-08 19:00:00,2,36602,0,0.00,2,2,0,2,30896,43631,3688,35648,0,0,0,0,0.00,0.00,0.00,0.00
2014-10-08 19:10:00,2,31778,0,0.00,2,2,0,2,28562,36082,2496,31342,0,0,0,0,0.00,0.00,0.00,0.00
2014-10-08 19:20:00,2,29986,0,0.00,2,2,0,2,27249,33640,2150,29348,0,0,0,0,0.00,0.00,0.00,0.00
2014-10-08 19:30:00,2,35180,0,0.00,2,2,0,2,31417,38506,2395,35610,0,0,0,0,0.00,0.00,0.00,0.00
2014-10-08 19:40:00,2,30159,0,0.00,2,2,0,2,25670,38491,3482,29315,0,0,0,0,0.00,0.00,0.00,0.00
2014-10-08 19:50:00,2,29097,0,0.00,2,2,0,2,26323,34631,2120,28492,0,0,0,0,0.00,0.00,0.00,0.00
2014-10-08 20:00:00,2,33130,0,0.00,2,2,0,2,27950,38603,3540,33012,0,0,0,0,0.00,0.00,0.00,0.00
2014-10-08 20:10:00,2,31914,0,0.00,2,2,0,2,26295,37959,3527,31699,0,0,0,0,0.00,0.00,0.00,0.00
2014-10-08 20:20:00,2,31365,0,0.00,2,2,0,2,26818,33349,1829,31854,0,0,0,0,0.00,0.00,0.00,0.00
2014-10-08 20:30:00,2,30799,0,0.00,2,2,0,2,27950,33089,1859,30403,0,0,0,0,0.00,0.00,0.00,0.00
2014-10-08 20:40:00,2,29051,0,0.00,2,2,0,2,24417,33473,2585,29036,0,0,0,0,0.00,0.00,0.00,0.00
2014-10-08 20:50:00,2,31773,0,0.00,2,2,0,2,27202,36220,3065,31470,0,0,0,0,0.00,0.00,0.00,0.00
2014-10-08 21:00:00,2,29058,0,0.00,2,2,0,2,24974,32718,2420,28912,0,0,0,0,0.00,0.00,0.00,0.00
2014-10-08 21:10:00,2,37188,0,0.00,2,2,0,2,29233,41004,3919,38842,0,0,0,0,0.00,0.00,0.00,0.00
2014-10-08 21:20:00,2,31099,0,0.00,2,2,0,2,27174,37242,3167,31110,0,0,0,0,0.00,0.00,0.00,0.00
2014-10-08 21:30:00,2,33208,0,0.00,2,2,0,2,26639,45376,5715,31110,0,0,0,0,0.00,0.00,0.00,0.00
2014-10-08 21:40:00,2,30882,0,0.00,2,2,0,2,28074,35864,2357,30536,0,0,0,0,0.00,0.00,0.00,0.00
2014-10-08 21:50:00,2,30973,0,0.00,2,2,0,2,28318,36306,2290,30398,0,0,0,0,0.00,0.00,0.00,0.00
2014-10-08 22:00:00,2,34699,0,0.00,2,2,0,2,32877,36123,1122,34824,0,0,0,0,0.00,0.00,0.00,0.00
2014-10-08 22:10:00,2,34933,0,0.00,2,2,0,2,27629,42219,4303,34776,0,0,0,0,0.00,0.00,0.00,0.00
2014-10-08 22:20:00,2,33348,0,0.00,2,2,0,2,31483,35987,1493,32726,0,0,0,0,0.00,0.00,0.00,0.00
2014-10-08 22:30:00,2,35210,0,0.00,2,2,0,2,26513,40682,3993,35896,0,0,0,0,0.00,0.00,0.00,0.00
2014-10-08 22:40:00,2,35229,0,0.00,2,2,0,2,30854,39760,2675,35064,0,0,0,0,0.00,0.00,0.00,0.00
2014-10-08 22:50:00,2,34657,0,0.00,2,2,0,2,30248,38234,2169,35373,0,0,0,0,0.00,0.00,0.00,0.00
2014-10-08 23:00:00,2,39713,0,0.00,2,2,0,2,32863,48586,4447,38020,0,0,0,0,0.00,0.00,0.00,0.00
2014-10-08 23:10:00,2,35703,0,0.00,2,2,0,2,28445,43503,4598,35548,0,0,0,0,0.00,0.00,0.00,0.00
2014-10-08 23:20:00,2,37716,0,0.00,2,2,0,2,33315,42004,2341,37412,0,0,0,0,0.00,0.00,0.00,0.00
2014-10-08 23:30:00,2,34160,0,0.00,2,2,0,2,27888,38577,3738,35335,0,0,0,0,0.00,0.00,0.00,0.00
2014-10-08 23:40:00,2,32411,0,0.00,2,2,0,2,26473,35541,2646,33616,0,0,0,0,0.00,0.00,0.00,0.00
2014-10-08 23:50:00,2,31597,0,0.00,2,2,0,2,28163,36065,2894,31220,0,0,0,0,0.00,0.00,0.00,0.00
